Flag for Canada Weather past 2 weeks in Yarmouth County, Nova Scotia, Canada

Now
54 °F

Partly sunny.


Feels Like: 52 °F
Forecast: 53 / 69 °F
Wind: 7 mph from South

Location: Yarmouth

Current Time: Jul 4, 2015 at 8:12:12 AM

Latest Report: Jul 4, 2015 at 7:00 AM


Visibility: 15 mi

Pressure: 30.04 "Hg

Humidity: 94%

Dew point: 52 °F

Location of Yarmouth CountyLocation

Historic Weather in Yarmouth County — Graph

°F

Yarmouth County temperature yesterday

Maximum temperature yesterday: 66 °F (at 3:00 PM)
Minimum temperature yesterday: 55 °F (at 9:00 PM)
Average temperature yesterday: 60 °F

Past Weeks' High & Low Weather Summary

 TemperatureHumidityPressure
High73 °F (Jul 1, 12:00 PM)100% (Jun 19, 10:00 AM)30.24 "Hg (Jun 19, 10:00 AM)
Low46 °F (Jun 20, 4:00 AM)52% (Jun 26, 11:00 AM)29.51 "Hg (Jun 22, 1:00 AM)
Average57 °F89%29.93 "Hg
* Reported Jun 19 7:00 AM — Jul 4 7:00 AM, Yarmouth County, Weather by CustomWeather, © 2015

Note: Actual official high and low records may vary slightly from our data, if they occured in-between our weather recording intervals... More about our weather records

Advertising

Yarmouth County weather history for previous 24 hours

 ConditionsComfort  
Time TempWeatherWind HumidityBarometerVisibility
7:00 AM
Sat, Jul 4
54 °FPartly sunny.7 mph94%30.04 "Hg15 mi
6:00 AM55 °FPassing clouds.5 mph88%30.01 "Hg15 mi
5:00 AM55 °FPassing clouds.8 mph88%30.02 "Hg15 mi
4:00 AM57 °FPassing clouds.10 mph82%30.01 "Hg15 mi
3:00 AM55 °FPassing clouds.10 mph88%30.00 "Hg15 mi
2:00 AM54 °FPassing clouds.8 mph88%29.99 "Hg15 mi
1:00 AM57 °FPassing clouds.10 mph77%29.98 "Hg15 mi
12:00 AM55 °FPassing clouds.13 mph82%29.98 "Hg15 mi
11:00 PM
Fri, Jul 3
55 °FPassing clouds.10 mph82%29.97 "Hg15 mi
10:00 PM55 °FPassing clouds.9 mph82%29.96 "Hg15 mi
9:00 PM55 °FPassing clouds.10 mph88%29.93 "Hg15 mi
8:00 PM59 °FPassing clouds.13 mph77%29.93 "Hg15 mi
7:00 PM61 °FPassing clouds.10 mph77%29.91 "Hg12 mi
6:00 PM64 °FPassing clouds.10 mph68%29.91 "Hg12 mi
5:00 PM66 °FPassing clouds.12 mph64%29.92 "Hg12 mi
4:00 PM66 °FPassing clouds.9 mph68%29.91 "Hg12 mi
3:00 PM66 °FPassing clouds.9 mph64%29.90 "Hg12 mi
2:00 PM64 °FPassing clouds.9 mph73%29.89 "Hg10 mi
1:00 PM64 °FPassing clouds.10 mph78%29.88 "Hg10 mi
12:00 PM64 °FPassing clouds.10 mph78%29.88 "Hg8 mi
11:00 AM64 °FPassing clouds.7 mph83%29.88 "Hg8 mi
10:00 AM63 °FFog.5 mph88%29.87 "Hg6 mi
9:00 AM57 °FFog.5 mph100%29.87 "Hg5 mi
8:00 AM57 °FFog.5 mph100%29.87 "Hg5 mi
Weather by CustomWeather, © 2015

See weather overviewHow to use our weather pages